User: anonymous   Login
Location: ???????
(55.9142°N, 37.8256°E)
Time: 07:19:20
(UTC+00:00)
Language:

Cosmos 1743 Rocket - Orbit

View from above orbital plane
View from above orbital plane
View from above satellite
View from above satellite

Ground track
Ground track

The orbit data is extracted from the following two-line orbital elements,

1 16720U 86034B   24166.96519782  .00000599  00000-0  68092-4 0  9995
2 16720  82.5543  18.7116 0018528 313.3084 168.5550 14.84526550 36958
Epoch (UTC): 14 June 2024 23:09:53
Eccentricity: 0.0018528
inclination: 82.5543°
perigee height: 602 km
apogee height: 628 km
right ascension of ascending node: 18.7116°
argument of perigee: 313.3084°
revolutions per day: 14.84526550
mean anomaly at epoch: 168.5550°
orbit number at epoch: 3695

The dashed part of the orbit path shows where the satellite is in the earth's shadow,  

DLR